Wind_Speed
42 43 43 43 44 44 45 45 45 45 44 45 46 46 46 47 48 48 48 48 48 48 48 48 49 48 48 48 48 48 47 46 47 48 48 47 47 47
41 41 42 43 43 43 43 44 44 44 44 43 44 45 46 46 47 47 48 48 49 48 48 47 47 47 48 47 47 48 47 47 48 48 48 48 47 48
40 40 40 41 42 42 42 42 42 42 42 42 43 44 46 46 46 46 47 47 48 47 47 47 47 47 48 48 48 48 48 48 48 48 47 47 48 49
40 40 40 40 41 41 41 42 42 42 42 42 43 44 45 46 46 45 46 47 47 46 47 47 47 47 48 47 48 48 48 48 48 49 48 48 48 48
40 40 40 40 41 40 41 42 42 42 43 42 42 43 44 45 46 45 45 45 46 46 47 47 46 46 46 46 47 47 48 48 49 49 49 49 49 48
39 40 40 41 41 41 41 42 42 42 42 43 42 43 43 44 45 45 45 45 45 45 45 46 46 46 46 47 48 48 48 48 48 48 49 49 48 48
39 40 41 41 41 41 42 42 42 42 42 42 42 41 42 43 43 43 43 43 43 44 44 44 44 45 46 46 47 47 47 46 46 46 46 47 47 47
39 39 40 41 41 41 41 42 42 41 41 40 40 40 41 41 41 41 41 42 42 42 43 44 45 45 45 45 46 46 46 45 45 45 45 45 45 45
37 37 37 38 38 39 39 39 40 40 40 40 40 39 39 40 40 41 41 41 41 41 42 43 44 44 44 44 45 44 44 45 44 44 44 44 44 43
36 36 35 35 35 36 36 37 37 38 37 38 38 38 38 39 39 40 41 41 41 41 41 41 41 41 42 42 42 42 42 42 43 43 43 43 42 41
33 33 33 33 32 32 33 34 34 34 34 34 35 36 36 36 37 39 39 40 39 39 39 39 38 38 38 39 40 40 40 40 40 40 40 39 39 39
30 30 31 30 31 31 31 31 31 32 32 33 33 34 34 34 35 36 37 37 37 37 38 38 37 36 35 35 37 37 37 36 36 36 36 36 36 36
28 28 28 28 29 29 29 29 29 30 31 31 31 32 33 33 33 34 35 35 35 35 35 35 35 34 34 33 32 33 33 33 33 33 33 34 34 34
25 26 26 26 27 27 28 27 27 28 29 29 30 31 31 31 31 32 32 32 32 32 33 33 33 33 32 32 32 32 33 32 32 32 32 32 32 32
24 24 24 25 26 27 27 26 26 27 28 28 28 29 29 29 29 30 30 30 30 30 31 31 31 32 32 31 31 31 31 31 31 30 30 30 30 30
23 24 24 24 24 24 25 26 26 26 26 26 26 27 27 27 28 28 28 28 28 28 29 30 31 30 30 30 29 29 29 29 28 28 28 28 28 28
24 24 24 23 23 23 23 24 24 24 23 23 24 25 24 24 24 24 25 25 25 25 26 27 27 28 27 26 25 26 26 26 26 26 25 25 26 26
22 22 22 22 21 21 21 21 21 21 21 21 22 21 21 21 22 22 22 21 21 22 22 23 24 25 24 23 23 23 23 23 23 22 23 23 24 25
21 20 20 20 20 20 19 19 19 19 20 20 20 20 20 20 20 21 20 20 19 20 21 21 21 21 21 21 21 21 20 20 20 20 21 21 22 23
19 19 18 19 19 19 19 18 18 18 19 19 18 18 18 19 19 19 19 19 18 18 18 18 18 18 18 19 18 18 18 18 19 19 19 20 21 22
18 18 18 18 18 19 18 18 17 17 17 17 17 17 18 18 18 18 17 17 16 16 15 15 16 16 16 16 16 16 16 17 17 18 18 19 19 20
18 18 17 17 17 17 17 17 17 16 16 16 16 16 16 16 16 16 15 14 14 13 13 14 14 14 14 14 14 14 15 15 16 17 17 17 18 18
17 17 17 17 16 16 16 15 15 15 15 15 15 15 15 15 15 14 13 13 13 13 13 13 13 13 13 12 13 13 13 14 15 15 15 17 17 17
Wind_Direction
263 263 262 262 261 261 261 261 260 260 260 260 261 260 260 260 261 261 261 262 263 264 264 265 265 266 266 268 269 270 270 271 272 274 275 276 277 277
264 263 263 262 261 261 261 262 262 261 261 260 261 261 260 260 260 261 261 262 263 264 264 265 265 265 266 268 268 269 270 271 273 274 275 276 277 277
263 263 263 262 261 261 261 262 262 262 261 261 262 262 262 261 262 262 262 263 263 264 264 265 264 265 267 267 268 269 271 272 273 275 276 276 276 276
263 263 263 263 262 261 261 262 262 262 262 263 263 263 262 261 262 263 263 263 263 265 265 264 264 265 266 267 269 270 271 272 273 275 276 276 276 277
263 263 264 263 262 261 261 262 263 263 263 263 264 264 263 261 262 264 265 265 265 265 266 265 265 265 266 267 269 269 271 272 274 275 276 277 277 277
262 263 264 263 262 261 262 263 263 263 263 263 264 265 263 262 263 263 265 265 265 267 267 267 266 266 267 267 269 270 271 273 274 276 278 278 278 278
262 263 264 263 263 262 262 262 263 264 264 264 264 264 264 263 263 264 265 265 266 267 268 268 268 267 267 268 269 270 272 273 275 276 278 278 278 279
263 263 263 262 263 263 263 262 263 263 264 264 263 264 264 262 262 264 266 266 267 267 268 269 269 269 270 269 270 271 273 274 275 277 278 279 280 280
264 264 264 264 263 263 263 263 263 263 263 263 263 264 264 262 262 264 266 267 268 269 269 269 270 271 271 272 272 273 275 276 276 277 279 282 282 282
264 264 264 264 263 263 263 263 263 262 263 263 263 264 264 264 263 265 267 269 270 270 270 270 270 271 273 274 275 275 275 276 277 279 281 282 282 281
263 263 263 263 263 262 263 262 261 261 261 262 262 264 265 266 266 266 267 269 271 270 270 270 272 272 272 274 274 274 274 275 277 279 279 280 280 281
262 262 263 263 262 262 263 263 262 262 262 262 263 264 265 268 269 268 268 269 270 269 269 271 272 272 273 274 275 276 276 278 279 279 279 279 279 280
261 262 262 263 263 263 264 264 263 263 262 263 264 264 265 268 270 271 271 270 271 270 270 270 271 272 273 274 275 277 278 279 280 280 281 281 281 281
261 261 262 262 263 264 265 265 265 265 264 264 265 266 267 268 270 271 271 271 271 269 269 269 270 271 273 275 275 276 278 280 280 281 282 283 284 284
259 259 260 263 264 265 265 265 265 266 266 266 267 267 268 268 269 270 271 271 272 270 269 269 271 272 274 276 277 277 278 280 281 282 283 284 286 287
259 259 261 264 265 267 266 266 266 267 268 267 267 267 267 269 270 271 271 271 272 272 271 272 272 272 274 274 275 277 279 281 282 284 284 285 287 288
258 259 262 263 265 267 267 266 267 267 267 268 269 268 268 269 270 271 272 273 273 272 273 272 272 273 274 274 275 276 278 281 282 283 284 286 288 290
257 258 261 261 264 267 267 267 268 268 269 269 269 268 268 269 270 272 273 274 274 274 274 273 273 273 272 273 275 278 280 282 284 284 286 288 290 292
257 258 261 261 262 266 266 266 268 269 269 269 268 268 269 271 273 273 273 276 277 276 274 273 274 273 270 270 274 277 281 284 285 286 288 291 293 294
256 257 258 259 261 264 265 267 269 269 267 267 267 268 269 271 274 275 274 276 277 278 276 275 275 274 271 272 274 277 280 284 287 290 292 294 296 297
255 257 258 260 263 265 266 268 269 269 267 265 266 266 266 268 271 274 275 276 276 278 279 278 277 276 275 275 275 278 281 285 291 295 296 298 299 299
257 259 259 260 264 264 265 266 267 268 268 267 266 265 265 268 270 272 273 272 273 277 279 280 278 277 278 279 278 279 283 288 292 296 299 301 303 304
259 260 260 261 264 264 265 266 266 267 267 265 264 263 264 266 267 268 268 269 272 275 279 281 278 278 280 281 282 282 285 289 293 296 298 302 305 307
Height
5613 5614 5616 5618 5620 5621 5623 5625 5628 5630 5632 5633 5635 5637 5640 5642 5644 5646 5648 5650 5651 5652 5654 5655 5657 5658 5659 5660 5661 5662 5662 5663 5663 5663 5663 5662 5661 5661
5603 5604 5605 5607 5609 5610 5612 5614 5615 5618 5620 5623 5624 5625 5627 5630 5632 5634 5636 5638 5639 5640 5641 5643 5644 5645 5647 5648 5648 5649 5650 5650 5650 5650 5650 5649 5648 5647
5592 5594 5595 5596 5598 5600 5601 5603 5605 5607 5609 5611 5612 5614 5615 5618 5620 5622 5623 5625 5626 5627 5628 5630 5631 5632 5634 5635 5636 5636 5637 5637 5637 5637 5636 5636 5635 5634
5581 5583 5584 5586 5587 5589 5590 5592 5594 5596 5598 5600 5601 5602 5604 5606 5608 5610 5611 5612 5613 5614 5616 5617 5618 5620 5621 5622 5623 5623 5623 5623 5624 5623 5623 5622 5621 5620
5571 5572 5574 5575 5577 5578 5580 5581 5583 5585 5586 5588 5590 5591 5592 5594 5596 5597 5598 5600 5601 5602 5603 5604 5605 5606 5608 5609 5609 5610 5610 5610 5610 5610 5609 5608 5607 5605
5560 5562 5563 5564 5566 5567 5569 5570 5572 5573 5575 5577 5578 5580 5581 5582 5584 5586 5587 5588 5589 5590 5590 5591 5592 5593 5594 5595 5596 5596 5596 5596 5596 5595 5594 5593 5592 5590
5549 5550 5552 5553 5554 5556 5558 5559 5560 5562 5563 5565 5567 5568 5570 5571 5573 5574 5575 5576 5577 5577 5578 5579 5580 5581 5581 5582 5582 5583 5583 5582 5582 5581 5580 5579 5577 5576
5538 5539 5540 5542 5543 5545 5546 5548 5549 5551 5552 5554 5555 5557 5558 5560 5561 5562 5563 5565 5566 5567 5567 5567 5567 5568 5569 5569 5569 5569 5569 5569 5568 5567 5566 5565 5563 5562
5527 5528 5530 5531 5532 5533 5535 5536 5538 5539 5541 5543 5544 5546 5547 5549 5550 5551 5551 5552 5553 5554 5554 5555 5555 5555 5556 5556 5556 5556 5556 5556 5555 5554 5553 5552 5550 5549
5517 5518 5519 5520 5521 5523 5524 5525 5527 5528 5530 5532 5534 5535 5536 5537 5539 5540 5540 5541 5542 5542 5542 5543 5544 5544 5544 5543 5543 5544 5543 5543 5543 5542 5541 5539 5538 5536
5507 5508 5509 5510 5511 5513 5514 5516 5517 5518 5520 5521 5523 5524 5526 5527 5528 5529 5530 5530 5531 5531 5531 5532 5533 5533 5533 5532 5532 5532 5532 5531 5531 5530 5529 5528 5526 5525
5498 5499 5500 5501 5502 5503 5504 5506 5507 5509 5510 5512 5513 5514 5516 5517 5517 5518 5519 5519 5520 5521 5520 5521 5522 5522 5524 5523 5522 5521 5520 5520 5520 5519 5518 5517 5515 5514
5490 5491 5491 5492 5494 5495 5496 5497 5498 5500 5501 5503 5504 5505 5506 5507 5507 5508 5508 5509 5509 5510 5511 5511 5512 5512 5512 5514 5513 5511 5510 5510 5509 5508 5507 5506 5505 5504
5482 5483 5484 5485 5486 5487 5488 5489 5490 5491 5493 5494 5495 5496 5497 5498 5498 5499 5499 5499 5500 5500 5500 5501 5502 5502 5503 5503 5503 5502 5501 5500 5500 5499 5497 5496 5495 5494
5475 5476 5477 5478 5479 5480 5481 5482 5482 5484 5485 5486 5487 5488 5489 5489 5490 5490 5490 5491 5491 5491 5491 5491 5492 5493 5493 5493 5493 5493 5492 5492 5490 5489 5488 5487 5486 5485
5468 5470 5470 5471 5472 5473 5474 5474 5475 5476 5477 5478 5479 5480 5480 5481 5482 5482 5482 5482 5482 5482 5482 5482 5482 5483 5484 5484 5484 5484 5483 5483 5482 5481 5480 5479 5478 5477
5462 5463 5464 5465 5466 5467 5467 5468 5469 5469 5470 5471 5471 5472 5473 5474 5474 5474 5475 5474 5474 5474 5474 5474 5474 5474 5475 5475 5476 5475 5475 5475 5474 5473 5472 5472 5471 5469
5455 5456 5458 5459 5460 5461 5461 5462 5462 5463 5464 5464 5465 5466 5466 5467 5467 5468 5468 5467 5467 5467 5467 5467 5467 5468 5468 5468 5469 5468 5468 5468 5467 5466 5465 5464 5464 5462
5449 5451 5452 5453 5454 5455 5456 5456 5457 5457 5458 5459 5459 5460 5461 5461 5461 5461 5461 5461 5461 5461 5461 5461 5461 5461 5462 5462 5463 5462 5462 5461 5461 5460 5459 5458 5457 5455
5444 5445 5447 5448 5449 5450 5451 5451 5452 5452 5453 5453 5454 5454 5455 5455 5455 5455 5455 5455 5455 5455 5455 5455 5455 5455 5456 5457 5457 5457 5456 5455 5455 5454 5453 5452 5451 5449
5439 5440 5442 5443 5444 5445 5445 5446 5446 5447 5447 5448 5449 5449 5450 5450 5450 5450 5450 5450 5450 5450 5450 5450 5450 5451 5451 5451 5452 5451 5451 5450 5449 5449 5448 5447 5446 5444
5434 5435 5437 5438 5439 5440 5440 5441 5442 5442 5443 5443 5444 5444 5445 5445 5445 5446 5446 5446 5446 5446 5446 5446 5446 5447 5447 5447 5447 5447 5447 5446 5445 5444 5442 5441 5440 5438
5430 5431 5432 5433 5434 5435 5436 5436 5437 5438 5438 5439 5439 5440 5440 5441 5441 5441 5442 5442 5443 5443 5443 5443 5443 5443 5443 5443 5443 5442 5442 5442 5441 5440 5439 5437 5435 5433